Location: Ajisawe
(8.4333°N, 4.3833°E)
Time: 01:53:12
(UTC+00:00)

Courier 1B Rocket - Pass Details

Date: 28 April 2021
Orbit: 920 x 1202 km, 28.3° (Epoch: 13 May)

Event Time Altitude Azimuth Distance (km) Brightness Sun altitude
Rises 20:12:16 0° 314° (NW) 3,632 8.9 -33.7°
Reaches altitude 10° 20:15:23 10° 327° (NNW) 2,726 7.9 -34.4°
Enters shadow 20:19:43 24° 8° (N) 1,959 6.6 -35.4°
Maximum altitude 20:20:40 25° 21° (NNE) 1,939 - -35.6°
Drops below altitude 10° 20:26:15 10° 73° (ENE) 2,890 - -36.8°
Sets 20:29:38 0° 86° (E) 3,899 - -37.6°
